This is the latest recevied weather packets stored in our database for station/object KC9EGS. If no packets are shown the sender has not sent any weather packets the latest 1 day(s).
| Time | Temp. | Humidity | Pressure | Rain* | Wind** | Luminosity | Snow |
|---|---|---|---|---|---|---|---|
| 1778057208 | 1.67° C | 69% | 1007.8 hPa | 0 mm | - | - | - |
| 1778056308 | 1.67° C | 69% | 1007.7 hPa | 0 mm | - | - | - |
| 1778055407 | 1.67° C | 69% | 1007.5 hPa | 0 mm | - | - | - |
| 1778054507 | 1.67° C | 68% | 1007.5 hPa | 0 mm | - | - | - |
| 1778053607 | 1.67° C | 69% | 1007.5 hPa | 0 mm | - | - | - |
| 1778050907 | 1.67° C | 71% | 1007.7 hPa | 0 mm | - | - | - |
| 1778050007 | 1.67° C | 70% | 1007.7 hPa | 0 mm | - | - | - |
| 1778049108 | 1.67° C | 69% | 1007.5 hPa | 0 mm | - | - | - |
| 1778048207 | 1.67° C | 69% | 1007.5 hPa | 0 mm | - | - | - |
| 1778047306 | 2.22° C | 66% | 1007.5 hPa | 0 mm | - | - | - |
| 1778045507 | 2.22° C | 66% | 1007.4 hPa | 0 mm | - | - | - |
| 1778044606 | 2.22° C | 64% | 1007.5 hPa | 0 mm | - | - | - |
| 1778043706 | 2.22° C | 64% | 1007.3 hPa | 0 mm | - | - | - |
| 1778042806 | 2.78° C | 64% | 1007.3 hPa | 0 mm | - | - | - |
| 1778041907 | 2.78° C | 63% | 1007.4 hPa | 0 mm | - | - | - |
| 1778041006 | 2.78° C | 62% | 1007.3 hPa | 0 mm | - | - | - |
| 1778039207 | 3.33° C | 60% | 1007.2 hPa | 0 mm | - | - | - |
| 1778038305 | 3.33° C | 58% | 1007.1 hPa | 0 mm | - | - | - |
| 1778037406 | 3.89° C | 58% | 1006.9 hPa | 0 mm | - | - | - |
| 1778036507 | 4.44° C | 56% | 1006.8 hPa | 0 mm | - | - | - |
| 1778035607 | 5° C | 54% | 1006.7 hPa | 0 mm | - | - | - |
| 1778034707 | 5° C | 54% | 1006.3 hPa | 0 mm | - | - | - |
| 1778033807 | 5° C | 54% | 1006.2 hPa | 0 mm | - | - | - |
| 1778032006 | 5.56° C | 52% | 1006 hPa | 0 mm | - | - | - |
| 1778031107 | 5.56° C | 49% | 1005.7 hPa | 0 mm | - | - | - |
* Rain latest hour (hover to see other rain measurements)
** Current wind speed in m/s (hover to see current wind gust speed)